Latest Weather Observations for Sydney Harbour

IDN60901

Issued at 6:21 pm EST Wednesday 5 August 2015 (issued every 10 minutes, with the page automatically refreshed every 10 minutes)

About weather observations | Map of Sydney area stations | Latest observations for Sydney area | Other Formats
Station Details ID: 066196 Name: WEDDING CAKE WEST Lat: -33.84 Lon: 151.26 Height: 6.0 m
Data from the previous 72 hours. | See also: Recent months at Sydney Harbour
Date/Time
EST
Tmp

°C
App
Tmp
°C
Dew
Point
°C
Rel
Hum
%
Delta-T

°C
Wind Press
QNH
hPa
Press
MSL
hPa
Rain
since
9 am
mm
Dir
 
Spd
km/h
Gust
km/h
Spd
kts
Gust
kts
05/06:00pm 13.6 - - - - WNW 20 30 11 16 - - -
05/05:30pm 13.8 - - - - WNW 17 24 9 13 - - -
05/05:00pm 14.3 - - - - W 24 35 13 19 - - -
05/04:30pm 14.4 - - - - W 28 39 15 21 - - -
05/04:06pm 14.6 - - - - W 28 46 15 25 - - -
05/04:00pm 14.5 - - - - WNW 22 30 12 16 - - -
05/03:30pm 13.3 - - - - WNW 24 33 13 18 - - -
05/03:00pm 13.2 - - - - WNW 28 39 15 21 - - -
05/02:39pm 13.2 - - - - W 35 54 19 29 - - -
05/02:30pm 13.1 - - - - W 39 54 21 29 - - -
05/02:00pm 13.3 - - - - WNW 32 43 17 23 - - -
05/01:30pm 12.9 - - - - W 28 37 15 20 - - -
05/01:00pm 12.5 - - - - W 22 28 12 15 - - -
05/12:30pm 12.2 - - - - WNW 20 30 11 16 - - -
05/12:00pm 11.9 - - - - WNW 17 26 9 14 - - -
05/11:30am 11.6 - - - - NW 17 26 9 14 - - -
05/11:00am 11.3 - - - - WNW 24 35 13 19 - - -
05/10:30am 11.2 - - - - WNW 24 35 13 19 - - -
05/10:00am 10.9 - - - - WNW 24 33 13 18 - - -
05/09:30am 9.9 - - - - WNW 20 35 11 19 - - -
05/09:00am 9.7 - - - - WNW 20 26 11 14 - - -
05/08:30am 9.0 - - - - NW 15 22 8 12 - - -
05/08:00am 8.4 - - - - WNW 20 26 11 14 - - -
05/07:30am 7.5 - - - - WNW 7 13 4 7 - - -
05/07:00am 7.1 - - - - WNW 24 30 13 16 - - -
05/06:30am 6.7 - - - - NW 17 22 9 12 - - -
05/06:00am 6.9 - - - - NW 13 20 7 11 - - -
05/05:30am 6.3 - - - - WNW 17 22 9 12 - - -
05/05:00am 6.6 - - - - NW 13 17 7 9 - - -
05/04:30am 6.6 - - - - NW 13 17 7 9 - - -
05/04:00am 7.1 - - - - WNW 17 19 9 10 - - -
05/03:30am 7.6 - - - - WNW 13 15 7 8 - - -
05/03:00am 7.9 - - - - W 19 24 10 13 - - -
05/02:30am 8.0 - - - - W 15 19 8 10 - - -
05/02:00am 8.0 - - - - WSW 22 30 12 16 - - -
05/01:30am 8.1 - - - - W 28 33 15 18 - - -
05/01:00am 8.3 - - - - W 26 35 14 19 - - -
05/12:30am 8.6 - - - - W 26 33 14 18 - - -
05/12:00am 8.6 - - - - W 24 33 13 18 - - -
 
Date/Time
EST
Tmp

°C
App
Tmp
°C
Dew
Point
°C
Rel
Hum
%
Delta-T

°C
Wind Press
QNH
hPa
Press
MSL
hPa
Rain
since
9 am
mm
Dir
 
Spd
km/h
Gust
km/h
Spd
kts
Gust
kts
04/11:30pm 8.8 - - - - W 24 30 13 16 - - -
04/11:00pm 9.1 - - - - W 26 32 14 17 - - -
04/10:30pm 9.4 - - - - W 22 28 12 15 - - -
04/10:00pm 9.9 - - - - W 28 41 15 22 - - -
04/09:30pm 10.1 - - - - W 26 33 14 18 - - -
04/09:00pm 10.5 - - - - W 24 32 13 17 - - -
04/08:30pm 10.4 - - - - WNW 20 32 11 17 - - -
04/08:00pm 10.8 - - - - NNW 7 11 4 6 - - -
04/07:30pm 11.0 - - - - NNW 11 17 6 9 - - -
04/07:00pm 11.4 - - - - N 15 19 8 10 - - -
04/06:30pm 11.3 - - - - N 11 15 6 8 - - -
04/06:00pm 12.0 - - - - N 15 17 8 9 - - -
04/05:30pm 12.1 - - - - N 15 19 8 10 - - -
04/05:00pm 12.4 - - - - N 13 19 7 10 - - -
04/04:30pm 12.7 - - - - N 13 19 7 10 - - -
04/04:00pm 12.2 - - - - NE 11 19 6 10 - - -
04/03:30pm 12.1 - - - - NNE 13 17 7 9 - - -
04/03:00pm 12.5 - - - - WSW 7 13 4 7 - - -
04/02:30pm 13.1 - - - - WSW 2 7 1 4 - - -
04/02:00pm 12.0 - - - - W 7 9 4 5 - - -
04/01:30pm 11.5 - - - - W 7 11 4 6 - - -
04/01:00pm 11.3 - - - - WNW 15 19 8 10 - - -
04/12:30pm 11.1 - - - - W 13 17 7 9 - - -
04/12:00pm 10.9 - - - - W 19 26 10 14 - - -
04/11:30am 10.4 - - - - W 17 24 9 13 - - -
04/11:00am 10.2 - - - - W 20 28 11 15 - - -
04/10:30am 9.9 - - - - W 22 30 12 16 - - -
04/10:00am 9.6 - - - - W 20 26 11 14 - - -
04/09:30am 8.9 - - - - W 22 28 12 15 - - -
04/09:00am 8.8 - - - - WNW 24 28 13 15 - - -
04/08:30am 8.7 - - - - W 22 30 12 16 - - -
04/08:00am 8.8 - - - - W 22 28 12 15 - - -
04/07:30am 9.0 - - - - W 20 26 11 14 - - -
04/07:00am 9.3 - - - - W 20 26 11 14 - - -
04/06:30am 9.1 - - - - W 20 28 11 15 - - -
04/06:00am 9.3 - - - - W 24 30 13 16 - - -
04/05:30am 9.5 - - - - WSW 22 28 12 15 - - -
04/05:00am 9.7 - - - - WSW 20 26 11 14 - - -
04/04:30am 9.6 - - - - SW 24 28 13 15 - - -
04/04:00am 10.2 - - - - WSW 22 30 12 16 - - -
04/03:30am 10.1 - - - - WSW 24 32 13 17 - - -
04/03:00am 10.2 - - - - WSW 24 30 13 16 - - -
04/02:30am 10.4 - - - - WSW 20 26 11 14 - - -
04/02:00am 10.6 - - - - WSW 17 22 9 12 - - -
04/01:30am 11.4 - - - - SW 22 28 12 15 - - -
04/01:00am 11.6 - - - - SW 20 26 11 14 - - -
04/12:30am 11.8 - - - - WSW 22 28 12 15 - - -
04/12:00am 12.0 - - - - SW 22 26 12 14 - - -
 
Date/Time
EST
Tmp

°C
App
Tmp
°C
Dew
Point
°C
Rel
Hum
%
Delta-T

°C
Wind Press
QNH
hPa
Press
MSL
hPa
Rain
since
9 am
mm
Dir
 
Spd
km/h
Gust
km/h
Spd
kts
Gust
kts
03/11:30pm 12.2 - - - - SW 20 28 11 15 - - -
03/11:00pm 12.2 - - - - SW 22 26 12 14 - - -
03/10:30pm 12.5 - - - - SW 26 30 14 16 - - -
03/10:00pm 12.5 - - - - SW 28 35 15 19 - - -
03/09:30pm 12.8 - - - - SW 33 43 18 23 - - -
03/09:00pm 13.1 - - - - SW 28 35 15 19 - - -
03/08:30pm 13.3 - - - - W 19 26 10 14 - - -
03/08:00pm 13.7 - - - - WSW 26 39 14 21 - - -
03/07:30pm 14.3 - - - - WSW 32 43 17 23 - - -
03/07:00pm 14.6 - - - - WSW 26 35 14 19 - - -
03/06:30pm 14.8 - - - - WSW 32 43 17 23 - - -
03/06:00pm 15.0 - - - - WSW 30 39 16 21 - - -
03/05:30pm 15.2 - - - - WSW 24 39 13 21 - - -
03/05:00pm 15.6 - - - - WSW 37 50 20 27 - - -
03/04:39pm 16.0 - - - - WSW 39 57 21 31 - - -
03/04:30pm 16.1 - - - - WSW 46 59 25 32 - - -
03/04:00pm 16.6 - - - - WSW 37 56 20 30 - - -
03/03:58pm 16.6 - - - - WSW 37 56 20 30 - - -
03/03:30pm 17.1 - - - - WSW 28 41 15 22 - - -
03/03:00pm 17.2 - - - - WSW 24 35 13 19 - - -
03/02:30pm 17.5 - - - - WSW 28 41 15 22 - - -
03/02:00pm 17.5 - - - - WNW 24 39 13 21 - - -
03/01:30pm 17.1 - - - - W 22 33 12 18 - - -
03/01:00pm 16.3 - - - - WSW 19 33 10 18 - - -
03/12:30pm 15.7 - - - - W 22 32 12 17 - - -
03/12:00pm 15.1 - - - - W 22 35 12 19 - - -
03/11:30am 14.7 - - - - W 24 33 13 18 - - -
03/11:00am 14.3 - - - - W 19 26 10 14 - - -
03/10:30am 13.7 - - - - WNW 17 26 9 14 - - -
03/10:00am 13.4 - - - - NW 15 24 8 13 - - -
03/09:30am 12.3 - - - - N 19 22 10 12 - - -
03/09:00am 11.4 - - - - NNW 17 24 9 13 - - -
03/08:30am 11.0 - - - - NNW 19 26 10 14 - - -
03/08:00am 11.3 - - - - N 15 19 8 10 - - -
03/07:30am 11.2 - - - - NW 19 22 10 12 - - -
03/07:00am 10.1 - - - - NW 17 22 9 12 - - -
03/06:30am 10.0 - - - - WNW 13 19 7 10 - - -
03/06:00am 10.8 - - - - W 15 17 8 9 - - -
03/05:30am 10.7 - - - - W 15 17 8 9 - - -
03/05:00am 11.2 - - - - WSW 17 22 9 12 - - -
03/04:30am 11.2 - - - - WSW 20 28 11 15 - - -
03/04:00am 11.7 - - - - WSW 26 33 14 18 - - -
03/03:30am 12.1 - - - - SW 33 39 18 21 - - -
03/03:00am 12.6 - - - - SW 33 37 18 20 - - -
03/02:30am 13.2 - - - - SW 33 39 18 21 - - -
03/02:00am 14.2 - - - - SW 26 32 14 17 - - -
03/01:30am 14.8 - - - - SW 17 20 9 11 - - -
03/01:00am 15.2 - - - - WSW 22 30 12 16 - - -
03/12:30am 15.7 - - - - SW 24 32 13 17 - - -
03/12:00am 16.6 - - - - WSW 19 26 10 14 - - -
 
Date/Time
EST
Tmp

°C
App
Tmp
°C
Dew
Point
°C
Rel
Hum
%
Delta-T

°C
Wind Press
QNH
hPa
Press
MSL
hPa
Rain
since
9 am
mm
Dir
 
Spd
km/h
Gust
km/h
Spd
kts
Gust
kts
02/11:30pm 16.9 - - - - WNW 13 19 7 10 - - -
02/11:00pm 17.4 - - - - W 17 22 9 12 - - -
02/10:30pm 18.0 - - - - WSW 15 22 8 12 - - -
02/10:00pm 18.5 - - - - W 33 56 18 30 - - -
02/09:51pm 18.7 - - - - W 33 56 18 30 - - -
02/09:30pm 18.8 - - - - WNW 30 39 16 21 - - -
02/09:00pm 19.0 - - - - W 30 39 16 21 - - -
02/08:30pm 19.9 - - - - W 26 32 14 17 - - -
02/08:00pm 20.6 - - - - WNW 22 32 12 17 - - -
02/07:30pm 21.0 - - - - W 26 35 14 19 - - -
02/07:00pm 21.5 - - - - W 28 35 15 19 - - -
02/06:30pm 22.1 - - - - W 24 32 13 17 - - -

Latest Capital City Observations: Canberra | Sydney | Melbourne | Brisbane | Adelaide | Perth | Hobart | Darwin

Other Formats:

Comma delimited format used in spreadsheet applications
http://www.bom.gov.au/fwo/IDN60901/IDN60901.95766.axf

JavaScript Object Notation format (JSON) in row-major order
http://www.bom.gov.au/fwo/IDN60901/IDN60901.95766.json